YAOGAN-31 C (43277 NORAD) Tracking and Keplerian Element Data

This shows tracking and keplerian element data for the satellite.

Feedback or suggestion? Click here.




ElementValue
Catalog43277
NameYAOGAN-31 C
Epoch Orbit403
Epoch Day130.13080782
Epoch Year2018
RAAN134.8287
Inclination63.4052
Eccentricity0.0010633
Argument of Perigee7.9108
Mean Anonmoly352.0597
Mean Motion13.45156256
Decay Rate-9E-07
L11 43277U 18034C 18130.13080782 -.00000090 00000-0 00000+0 0 9990
L22 43277 63.4052 134.8287 0010633 7.9108 352.0597 13.45156256 4032

Live tracking and technical data element details for YAOGAN-31 C (NORAD 43277). YAOGAN-31 C can be tracked NOW for your location showing map with azimuth and elevation plus other details from your city location.

Track the satellite on the map from your city or location and see movement details for azimuth, elevation, latitude, longitude, range, height, and movement on the map or in text.







IsCatalogInMostPopularTable: catalog: 43277, numindb: 24
Update: records affected: 1



GetName: 43277 YAOGAN-31 C

Hit Count: updated at: Fri, 20 Jul 2018 20:35:47 GMT